Location: Nashville
(36.1660°N, 86.7840°W)
Time: 07:08:22
(UTC-05:00)

AO-109 - Pass Details

Date: 31 May 2022
Orbit: 477 x 502 km, 60.7° (Epoch: 27 June)

Event Time Altitude Azimuth Distance (km) Brightness Sun altitude
Rises 21:23:01 0° 341° (NNW) 2,596 ? -14.8°
Reaches altitude 10° 21:25:59 10° 6° (N) 1,712 ? -15.2°
Maximum altitude 21:28:14 15° 42° (NE) 1,434 ? -15.5°
Enters shadow 21:30:04 11° 72° (ENE) 1,623 ? -15.8°
